Flag for France Weather past 2 weeks in Strasbourg, France

Now
43 °F

Passing clouds.


Feels Like: 43 °F
Forecast: 39 / 55 °F
Wind: 1 mph from North

Location: Strasbourg Airport

Current Time: Oct 23, 2014 at 11:37:56 PM

Latest Report: Oct 23, 2014 at 11:00 PM


Visibility: N/A

Pressure: 30.24 "Hg

Humidity: 93%

Dew point: 41 °F

Location of StrasbourgLocation

Historic Weather in Strasbourg — Graph

°F

Strasbourg temperature yesterday

Maximum temperature yesterday: 54 °F (at 4:00 PM)
Minimum temperature yesterday: 41 °F (at 6:00 AM)
Average temperature yesterday: 49 °F

Past Weeks' High & Low Weather Summary

 TemperatureHumidityPressure
High79 °F (Oct 19, 3:00 PM)100% (Oct 9, 10:00 PM)30.30 "Hg (Oct 9, 10:00 PM)
Low41 °F (Oct 22, 6:00 AM)50% (Oct 9, 3:00 PM)29.68 "Hg (Oct 21, 5:00 PM)
Average58 °F85%29.96 "Hg
* Reported Oct 8 10:00 PM — Oct 23 10:30 PM, Strasbourg, Weather by CustomWeather, © 2014

Note: Actual official high and low records may vary slightly from our data, if they occured in-between our weather recording intervals... More about our weather records

Advertising

Strasbourg weather history for previous 24 hours

 ConditionsComfort  
Time TempWeatherWind HumidityBarometerVisibility
10:30 PM
Oct 23
45 °FPassing clouds.No wind87%30.24 "HgN/A
10:00 PM45 °FClear.2 mph93%30.24 "HgN/A
9:30 PM46 °FClear.1 mph87%30.24 "HgN/A
9:00 PM46 °FClear.2 mph87%30.24 "HgN/A
8:30 PM46 °FPassing clouds.3 mph87%30.24 "HgN/A
8:00 PM50 °FPassing clouds.3 mph76%30.27 "HgN/A
7:30 PM50 °FOvercast.3 mph82%30.24 "HgN/A
7:00 PM50 °FBroken clouds.2 mph76%30.24 "HgN/A
6:30 PM50 °FLight rain. Scattered clouds.3 mph76%30.24 "HgN/A
6:00 PM54 °FPartly sunny.2 mph67%30.24 "HgN/A
5:30 PM55 °FMostly cloudy.3 mph63%30.24 "HgN/A
5:00 PM55 °FMostly cloudy.5 mph67%30.24 "HgN/A
4:30 PM57 °FOvercast.5 mph59%30.24 "HgN/A
4:00 PM59 °FPartly sunny.2 mph55%30.24 "HgN/A
3:30 PM57 °FPassing clouds.2 mph59%30.27 "HgN/A
3:00 PM55 °FPartly sunny.2 mph63%30.27 "HgN/A
2:30 PM59 °FBroken clouds.2 mph55%30.27 "HgN/A
2:00 PM57 °FScattered clouds.1 mph59%30.27 "HgN/A
1:30 PM55 °FPartly sunny.3 mph63%30.30 "HgN/A
1:00 PM55 °FPartly sunny.2 mph67%30.30 "HgN/A
12:30 PM54 °FOvercast.2 mph72%30.30 "HgN/A
12:00 PM54 °FOvercast.5 mph72%30.30 "HgN/A
11:30 AM52 °FClear.3 mph77%30.30 "HgN/A
11:00 AM52 °FClear.7 mph77%30.30 "HgN/A
10:30 AM50 °FClear.6 mph82%30.30 "HgN/A
10:00 AM50 °FClear.5 mph82%30.27 "HgN/A
9:30 AM48 °FClear.3 mph82%30.27 "HgN/A
9:00 AM48 °FClear.3 mph82%30.27 "HgN/A
8:30 AM48 °FClear.3 mph82%30.27 "HgN/A
8:00 AM48 °FClear.5 mph82%30.27 "HgN/A
7:30 AM48 °FClear.6 mph82%30.24 "HgN/A
7:00 AM48 °FOvercast.6 mph82%30.24 "HgN/A
6:30 AM48 °FPartly cloudy.3 mph82%30.24 "HgN/A
6:00 AM48 °FOvercast.3 mph82%30.24 "HgN/A
5:30 AM48 °FOvercast.6 mph82%30.24 "HgN/A
4:30 AM48 °FOvercast.8 mph82%30.24 "HgN/A
4:00 AM48 °FOvercast.8 mph82%30.24 "HgN/A
3:30 AM48 °FOvercast.8 mph82%30.24 "HgN/A
3:00 AM50 °FOvercast.8 mph76%30.24 "HgN/A
2:30 AM48 °FClear.8 mph76%30.24 "HgN/A
2:00 AM48 °FOvercast.7 mph82%30.24 "HgN/A
1:30 AM48 °FOvercast.9 mph76%30.24 "HgN/A
1:00 AM48 °FOvercast.12 mph76%30.21 "HgN/A
12:30 AM48 °FClear.12 mph76%30.21 "HgN/A
12:00 AM50 °FMostly cloudy.10 mph71%30.24 "HgN/A
11:30 PM
Oct 22
50 °FMostly cloudy.12 mph71%30.24 "HgN/A
11:00 PM50 °FClear.13 mph71%30.21 "HgN/A
Weather by CustomWeather, © 2014

See weather overviewHow to use our weather pages